User: anonymous   Login
Location: Unspecified
(0.0000°N, 0.0000°E)
Time: 03:24:03
(UTC+00:00)
Language:

GALILEO 10 (206) - Orbit

View from above orbital plane
View from above orbital plane
View from above satellite
View from above satellite

Ground track
Ground track

The orbit data is extracted from the following two-line orbital elements,

1 40890U 15045B   18320.60517075 -.00000022  00000-0  00000+0 0  9995
2 40890  56.6186 297.9949 0002369 300.5926  59.3784  1.70474739 19827
Epoch (UTC): 16 November 2018 14:31:26
Eccentricity: 0.0002369
inclination: 56.6186°
perigee height: 23215 km
apogee height: 23229 km
right ascension of ascending node: 297.9949°
argument of perigee: 300.5926°
revolutions per day: 1.70474739
mean anomaly at epoch: 59.3784°
orbit number at epoch: 1982

The dashed part of the orbit path shows where the satellite is in the earth's shadow,  

DLR